Weather History for Syracuse, NY

Change the Weather History Date:

Wednesday, October 19, 2011

  Actual Average Record
Temperature  
Mean Temperature 57 °F 50 °F  
Max Temperature 65 °F 59 °F 81 °F (1953)
Min Temperature 49 °F 40 °F 22 °F (1922)
Degree Days  
Heating Degree Days 8 16  
Month to date heating degree days 148 241  
Since 1 July heating degree days 218 408  
Cooling Degree Days 0 0  
Month to date cooling degree days 0 0  
Year to date cooling degree days 911 565  
Growing Degree Days 7 (Base 50)    
Moisture  
Dew Point 47 °F    
Average Humidity 68    
Maximum Humidity 83    
Minimum Humidity 52    
Precipitation  
Precipitation 0.07 in 0.11 in 1.67 in (1968)
Month to date precipitation 1.75 2.12  
Year to date precipitation 40.75 30.40  
Snow  
Snow 0.00 in 0.00 in 1.20 in (1992)
Month to date snowfall 0.0 0.1  
Since 1 July snowfall 0.0 0.1  
Since 1 September snowfall 0.0 0.1  
Snow Depth 0.00 in    
Sea Level Pressure  
Sea Level Pressure 29.64 in    
Wind  
Wind Speed 13 mph (ESE)    
Max Wind Speed 25 mph    
Max Gust Speed 33 mph    
Visibility 10 miles    
Events Rain    
T = Trace of Precipitation, MM = Missing Value Source: NWS Daily Summary

Daily Weather History Graph

Daily Weather History Graph

Search for Another Location

Airport:

Trip Planner

Search our weather history database for the weather conditions in past years. The results will help you decide how hot, cold, wet, or windy it might be!

Date:

Astronomy

Oct. 19, 2011 Rise Set
Actual Time 7:22 AM EDT 6:15 PM EDT
Civil Twilight 6:53 AM EDT 6:44 PM EDT
Nautical Twilight 6:20 AM EDT 7:17 PM EDT
Astronomical Twilight 5:47 AM EDT 7:50 PM EDT
Moon 11:54 PM EDT (10/19) 1:56 PM EDT (10/19)
Length of Visible Light 11h 50m
Length of Day
10h 53m
Waning Gibbous, 55% of the Moon is Illuminated
Oct 19
Waning Gibbous
Oct 19
Last Quarter
Oct 26
New
Nov 2
First Quarter
Nov 10
Full

Hourly Weather History & Observations

Time (EDT) Temp. Dew Point Humidity Pressure Visibility Wind Dir Wind Speed Gust Speed Precip Events Conditions
12:54 AM 53.1 °F 44.1 °F 71% 29.85 in 10.0 mi ENE 3.5 mph - 0.00 in Rain Light Rain
1:54 AM 52.0 °F 46.0 °F 80% 29.85 in 10.0 mi East 4.6 mph - 0.00 in   Overcast
2:54 AM 52.0 °F 46.0 °F 80% 29.84 in 10.0 mi SE 8.1 mph - N/A   Overcast
3:54 AM 50.0 °F 43.0 °F 77% 29.81 in 10.0 mi ESE 9.2 mph - N/A   Overcast
4:54 AM 51.1 °F 43.0 °F 74% 29.82 in 10.0 mi East 9.2 mph 16.1 mph N/A   Overcast
5:54 AM 52.0 °F 42.1 °F 69% 29.78 in 10.0 mi East 9.2 mph - N/A   Overcast
6:54 AM 52.0 °F 42.1 °F 69% 29.78 in 10.0 mi ESE 9.2 mph - N/A   Overcast
7:54 AM 52.0 °F 42.1 °F 69% 29.79 in 10.0 mi ESE 5.8 mph - N/A   Overcast
8:54 AM 54.0 °F 42.1 °F 64% 29.79 in 10.0 mi ESE 9.2 mph - N/A   Overcast
9:54 AM 57.0 °F 45.0 °F 64% 29.77 in 10.0 mi East 9.2 mph - 0.00 in   Mostly Cloudy
10:54 AM 57.9 °F 44.1 °F 60% 29.75 in 10.0 mi ESE 9.2 mph - N/A   Mostly Cloudy
11:54 AM 60.1 °F 45.0 °F 57% 29.73 in 10.0 mi East 9.2 mph - N/A   Mostly Cloudy
12:54 PM 64.0 °F 46.0 °F 52% 29.71 in 10.0 mi East 15.0 mph 21.9 mph N/A   Mostly Cloudy
1:54 PM 64.0 °F 46.0 °F 52% 29.68 in 10.0 mi ESE 18.4 mph 25.3 mph N/A   Mostly Cloudy
2:54 PM 62.1 °F 45.0 °F 53% 29.65 in 10.0 mi East 17.3 mph - N/A   Overcast
3:54 PM 62.1 °F 46.9 °F 58% 29.63 in 10.0 mi ESE 19.6 mph 27.6 mph 0.00 in Rain Light Rain
4:54 PM 57.9 °F 48.0 °F 70% 29.62 in 10.0 mi ESE 18.4 mph - 0.00 in Rain Light Rain
5:54 PM 55.9 °F 48.9 °F 77% 29.61 in 9.0 mi ESE 15.0 mph 24.2 mph 0.00 in Rain Light Rain
6:54 PM 55.9 °F 48.9 °F 77% 29.59 in 10.0 mi East 16.1 mph 24.2 mph 0.00 in   Overcast
7:30 PM 57.2 °F 48.2 °F 72% 29.58 in 10.0 mi East 15.0 mph 24.2 mph N/A   Overcast
7:54 PM 57.0 °F 48.9 °F 74% 29.55 in 10.0 mi ESE 15.0 mph 24.2 mph N/A   Overcast
8:54 PM 57.9 °F 50.0 °F 75% 29.54 in 10.0 mi ESE 15.0 mph 25.3 mph 0.00 in Rain Light Rain
9:54 PM 57.9 °F 51.1 °F 78% 29.49 in 10.0 mi ESE 17.3 mph 29.9 mph 0.00 in Rain Light Rain
10:28 PM 57.2 °F 51.8 °F 82% 29.45 in 10.0 mi East 13.8 mph 21.9 mph 0.00 in   Overcast
10:54 PM 57.0 °F 50.0 °F 77% 29.43 in 10.0 mi ESE 13.8 mph 26.5 mph 0.00 in   Overcast
10:56 PM 57.2 °F 50.0 °F 77% 29.44 in 10.0 mi ESE 15.0 mph 21.9 mph N/A   Overcast
11:06 PM 57.2 °F 51.8 °F 82% 29.43 in 9.0 mi ESE 19.6 mph 27.6 mph 0.01 in Rain Light Rain
11:15 PM 57.2 °F 51.8 °F 82% 29.41 in 10.0 mi ESE 19.6 mph 28.8 mph 0.01 in Rain Light Rain
11:28 PM 57.2 °F 51.8 °F 82% 29.40 in 10.0 mi ESE 23.0 mph 29.9 mph 0.02 in Rain Light Rain
11:54 PM 55.9 °F 52.0 °F 87% 29.37 in 6.0 mi ESE 23.0 mph 32.2 mph 0.05 in Rain Light Rain